Theta_e
315 314 313 317 320 321 323 325 323 321 322 321 321 318 321 322 321 320 320 320 321 321 321 322 321 322 321 324 344 354 351 355 357 361 361 353 349 349 349 347 342 335 333 334 338 342 342 343 343 344 343 343 342 340 338 339 337 330 327 332 335 335 334 331 329 328 327 328 332 333 333 335 337 338 337 336 334 335 339 338 338 337 337 337 337 337 336 335 334 334 334 334 331 331 333 333 333
314 316 319 322 323 325 328 326 322 320 320 319 320 319 321 323 321 318 319 319 319 320 321 322 320 323 319 327 346 355 353 352 352 356 354 349 349 348 348 345 339 336 335 336 340 343 345 345 343 344 344 343 342 340 339 339 337 330 329 334 335 336 334 332 331 332 332 334 336 336 336 337 338 340 339 337 334 336 338 338 338 337 337 337 338 337 337 337 335 334 333 332 328 328 333 333 332
314 320 325 325 323 324 327 324 323 318 317 317 317 320 321 320 318 318 320 318 320 320 320 321 321 322 322 338 350 356 355 350 350 351 350 350 350 348 347 344 339 337 338 340 341 344 347 346 345 344 345 344 343 341 339 339 336 330 330 334 336 336 334 332 333 334 335 336 336 336 337 337 338 340 339 337 334 337 338 337 338 337 338 338 338 338 338 338 336 334 331 330 325 326 333 332 331
314 321 325 326 323 322 325 326 326 319 316 314 312 319 320 318 319 319 320 319 322 320 321 320 322 331 340 350 350 354 354 350 350 350 352 351 348 347 347 344 339 338 341 343 340 343 346 346 346 345 346 346 344 342 340 339 335 331 331 335 338 336 333 334 335 335 335 335 335 337 337 336 338 339 339 335 334 338 337 336 338 337 338 338 339 338 338 338 337 335 331 330 323 322 332 331 330
314 321 324 325 322 320 325 326 326 320 318 315 310 317 319 319 320 319 320 320 321 320 322 318 321 339 349 350 348 353 354 351 351 350 351 349 347 346 345 344 341 341 344 343 338 341 345 346 347 347 347 346 346 343 340 338 335 333 333 337 339 335 333 335 336 335 334 333 335 336 335 336 337 338 338 334 333 337 336 336 338 338 338 338 338 338 338 338 337 335 333 331 322 318 329 331 329
316 321 322 323 322 321 325 325 323 319 319 318 314 317 319 320 320 320 321 320 322 322 321 320 326 343 351 349 350 352 351 352 352 350 350 348 346 345 345 343 342 344 344 342 339 341 345 346 348 348 348 347 346 343 340 338 335 335 335 338 337 333 334 335 335 334 332 333 334 334 333 334 336 337 336 334 335 336 336 337 339 339 339 338 339 338 339 338 338 336 333 330 322 316 324 331 329
318 320 321 322 321 321 325 324 322 320 321 321 318 318 319 320 320 320 320 319 323 323 321 322 332 349 353 349 352 352 351 352 351 350 349 347 346 345 344 342 343 344 343 342 341 342 344 346 348 347 347 347 346 344 341 339 337 336 335 336 335 333 334 333 333 332 331 333 334 333 332 333 335 336 335 335 337 337 337 338 339 339 339 339 339 339 339 338 337 334 332 328 322 316 320 328 329
319 319 321 321 320 321 323 322 320 321 321 320 319 319 319 319 320 320 319 319 321 322 324 321 332 354 355 351 356 354 351 351 350 350 348 347 346 345 344 343 343 343 343 342 340 342 344 346 347 347 347 346 345 344 342 341 340 336 332 334 333 335 335 330 329 330 331 334 335 333 332 334 334 335 335 337 338 338 339 339 339 340 339 338 338 339 338 337 335 333 331 326 323 320 320 325 328
319 319 321 321 321 319 318 318 318 320 319 319 318 321 322 318 320 320 319 320 320 320 323 322 335 355 357 353 356 353 351 351 349 349 348 347 346 345 343 343 343 343 344 341 339 343 344 345 347 346 347 346 345 344 343 343 341 335 332 334 335 338 336 330 329 332 334 337 338 335 333 334 335 336 337 338 339 340 340 340 340 340 338 337 337 337 337 336 334 332 328 323 324 324 322 325 329
319 319 321 323 323 319 315 315 316 318 319 318 318 320 320 318 319 319 319 319 320 320 322 335 346 354 354 354 354 352 351 350 349 349 348 347 345 344 343 343 344 344 345 342 339 343 345 345 346 346 346 345 344 344 342 342 340 336 333 335 337 341 337 332 333 335 337 339 339 337 335 335 335 337 338 338 338 340 341 341 340 339 337 337 336 336 336 334 333 332 327 322 325 328 327 329 330
321 319 320 322 322 319 317 315 315 318 319 317 318 319 319 319 319 318 320 319 320 322 320 339 352 353 352 353 353 352 351 350 350 348 347 347 344 344 343 343 343 343 344 341 339 343 344 344 345 346 345 344 343 343 342 340 339 336 334 336 340 341 337 333 334 337 338 338 339 339 336 336 336 337 337 337 338 339 341 341 340 338 337 336 336 335 334 333 332 331 327 322 325 331 331 331 331
321 320 319 320 319 318 317 315 314 318 318 317 318 319 320 319 319 319 319 320 320 321 326 341 349 351 353 354 352 352 351 350 350 348 348 346 345 344 343 344 343 343 342 338 339 343 344 344 344 344 344 343 343 342 341 339 337 335 335 338 340 338 335 333 335 337 337 338 339 338 337 337 336 336 337 337 337 339 340 340 339 337 337 336 335 335 333 332 332 330 328 322 324 331 331 330 331
320 320 319 319 319 316 315 314 315 320 318 317 319 318 320 318 319 320 318 321 317 322 340 350 348 351 354 354 353 353 352 350 349 348 347 346 345 344 343 344 343 342 340 335 339 343 343 343 343 343 342 342 342 341 340 338 335 335 337 339 338 335 334 333 335 337 337 337 338 338 338 338 337 337 337 336 336 337 339 339 338 337 337 336 334 334 332 332 331 329 329 323 323 330 330 330 332
320 320 319 320 321 318 316 315 316 316 316 318 319 319 320 318 320 320 319 320 318 328 344 350 347 352 354 354 356 354 353 351 349 348 346 346 345 344 344 344 342 341 339 335 339 343 343 343 343 342 342 342 342 340 338 336 334 337 338 338 336 333 332 333 336 338 337 338 337 337 338 339 338 338 336 336 336 337 338 338 337 336 336 335 334 333 333 332 331 330 328 322 321 327 330 331 332
319 319 319 320 319 317 316 316 315 314 316 320 318 320 320 319 320 319 321 318 320 335 345 346 345 354 355 356 357 354 352 350 349 348 346 346 345 345 344 344 342 341 340 338 340 342 343 343 343 342 342 342 341 339 337 336 337 338 338 337 335 333 335 336 338 338 337 338 338 338 338 338 338 337 335 335 336 337 337 338 336 335 334 334 334 333 333 332 331 331 327 322 320 323 329 331 330
317 317 317 318 316 315 315 316 316 315 316 319 317 320 319 319 321 318 323 319 325 341 346 345 343 351 352 352 354 352 351 351 349 347 346 347 346 345 344 343 342 341 340 340 340 341 342 343 343 342 341 341 340 338 337 339 339 339 337 335 335 336 338 339 339 339 338 338 338 339 338 337 336 335 333 334 337 337 337 337 336 335 334 333 333 333 333 332 331 331 327 324 324 324 328 330 330
317 316 317 316 316 314 316 316 316 316 316 319 318 319 318 318 320 319 322 317 332 347 347 346 345 348 350 350 351 351 351 350 349 348 347 347 346 346 344 342 341 341 340 340 341 341 341 342 342 341 340 340 340 339 339 339 340 338 336 335 337 338 339 339 339 339 339 338 338 339 338 336 335 333 332 333 334 335 336 337 337 335 334 333 333 333 333 333 331 331 328 327 329 329 330 331 331
317 318 317 314 315 315 316 317 316 317 317 318 318 319 318 318 318 318 320 318 337 349 348 348 348 350 351 350 350 350 351 350 349 348 347 346 346 346 345 343 341 341 340 340 341 340 341 342 341 340 340 341 340 340 340 340 339 337 336 337 338 338 339 340 340 340 340 339 338 338 337 335 334 333 333 332 331 331 332 334 336 335 334 333 333 332 333 333 332 331 329 327 329 331 330 331 331
317 318 318 314 315 315 317 317 316 317 317 317 318 318 318 318 317 318 319 317 335 350 351 351 351 353 351 349 350 350 350 349 348 347 347 346 345 346 345 344 342 341 341 340 340 341 341 341 341 340 339 340 339 339 340 340 340 338 337 337 337 338 340 340 340 339 339 338 337 337 337 335 334 333 333 332 331 330 328 330 333 333 333 333 332 332 332 333 332 332 331 328 328 330 329 331 332
317 317 317 315 316 316 317 317 317 317 317 317 317 317 317 318 317 318 319 315 332 349 351 353 355 354 352 349 350 349 349 348 348 348 347 346 345 345 345 344 343 341 341 341 340 341 341 339 340 340 339 338 339 339 340 340 340 339 337 336 336 339 339 339 339 337 336 336 337 338 338 336 334 334 333 333 333 333 330 328 329 331 331 332 332 331 332 332 332 332 331 330 328 329 330 331 332
316 316 315 315 316 315 317 317 318 317 317 316 316 317 316 318 317 319 318 317 335 349 348 352 355 353 352 350 349 348 348 348 346 344 344 345 346 345 345 345 343 342 342 341 340 341 341 339 340 341 340 339 339 339 339 339 338 337 336 336 337 339 339 338 336 335 335 336 337 338 338 337 335 336 335 334 334 334 333 330 328 329 329 330 330 330 331 332 332 332 332 331 329 330 332 332 333
315 315 315 315 315 315 316 318 318 317 318 316 316 316 315 318 317 319 318 316 335 348 345 349 353 351 350 349 349 349 349 347 340 338 339 342 345 346 345 345 344 343 342 341 341 341 341 339 341 341 340 340 340 338 337 337 337 336 337 338 338 339 339 337 336 336 335 337 338 339 338 337 337 338 336 335 335 335 334 328 325 327 328 328 329 329 331 331 332 332 332 331 330 332 333 334 336
315 315 315 315 316 315 316 317 318 317 317 316 316 316 316 317 317 319 317 317 334 344 343 347 350 349 348 347 349 350 350 348 342 339 338 339 344 347 345 345 345 343 342 341 340 340 341 341 340 340 339 339 339 338 335 336 337 337 338 338 338 338 337 337 338 338 336 337 338 338 338 337 337 337 336 336 336 334 329 324 321 322 325 327 328 329 330 331 331 331 332 332 332 333 335 336 337
314 315 315 316 316 316 316 316 317 317 316 316 316 316 316 316 317 318 315 322 338 344 343 346 347 347 347 347 351 351 349 347 343 338 339 341 345 347 346 346 345 344 341 340 339 340 342 342 340 340 339 338 338 338 335 335 337 338 338 338 338 337 337 338 339 339 337 336 337 337 337 336 336 336 335 335 334 331 329 329 326 325 325 327 327 328 329 329 330 331 331 332 333 334 335 336 336
314 314 315 316 315 316 317 317 317 317 317 317 316 316 316 316 316 317 315 320 337 344 343 345 344 345 349 350 354 354 349 347 342 337 339 342 347 348 346 346 345 343 341 339 339 341 342 342 341 340 339 338 338 338 336 336 336 338 338 337 337 337 337 338 338 339 338 336 336 336 336 335 335 335 335 335 333 332 332 333 332 331 330 330 330 330 329 329 331 332 332 332 333 334 336 335 335
314 315 315 315 315 315 316 317 317 317 317 316 316 316 316 317 316 316 316 316 330 342 344 344 345 345 348 351 355 354 351 350 344 338 338 340 346 348 347 346 345 342 340 339 340 341 342 341 341 340 339 338 338 337 337 336 337 338 338 337 338 337 337 338 337 338 337 335 336 336 336 335 334 335 335 334 335 335 334 333 333 333 333 333 333 333 332 331 332 333 333 332 333 335 336 334 333
315 316 316 315 315 316 316 316 317 316 317 316 316 316 316 317 315 315 317 316 325 339 344 343 344 346 348 350 354 355 352 350 344 340 341 343 345 346 347 347 344 342 339 339 340 341 341 341 341 340 339 338 338 338 337 338 338 338 338 338 337 336 336 337 337 337 336 335 335 337 336 334 334 334 334 334 335 335 334 333 334 333 333 333 332 333 333 332 333 333 333 333 333 335 335 333 332
315 315 316 316 316 316 317 317 316 316 317 317 317 316 316 316 315 315 317 316 317 330 342 342 343 347 348 349 353 356 353 349 344 341 340 339 338 340 342 342 341 341 340 339 340 341 341 341 340 339 339 338 338 338 338 338 338 337 337 338 336 336 337 336 337 337 336 335 335 335 335 334 334 334 333 333 333 335 335 333 333 333 333 333 333 333 332 332 333 333 333 333 333 333 333 331 331
315 315 315 315 316 316 317 317 316 316 316 318 317 314 315 314 315 315 316 318 315 324 338 339 340 343 346 349 352 355 353 347 340 334 335 336 336 336 334 336 339 340 341 342 340 340 341 341 340 339 339 339 338 338 338 339 338 336 336 337 336 337 338 336 337 337 336 337 335 334 334 334 334 334 333 333 334 335 335 334 334 334 334 333 333 333 333 333 333 333 333 332 332 332 332 331 331
314 314 314 314 315 314 315 316 316 316 315 318 315 312 316 315 315 316 315 318 314 323 337 338 340 341 343 349 352 354 352 345 338 334 335 339 337 336 334 335 338 337 339 341 339 340 340 340 340 338 338 338 338 338 338 338 338 337 336 337 337 337 338 336 336 337 336 337 335 334 334 333 333 334 333 334 335 335 335 335 335 335 335 334 334 333 334 334 334 334 333 332 332 331 331 331 330
314 314 314 315 313 312 314 315 315 315 315 317 315 311 315 316 315 315 316 317 314 327 339 338 340 342 343 348 350 352 350 343 339 337 336 337 336 336 336 337 337 335 337 340 339 339 339 339 338 338 337 338 338 338 338 339 339 339 337 337 337 337 338 337 337 336 336 336 335 334 333 333 332 333 335 335 335 334 335 335 335 335 335 334 334 333 334 335 335 334 333 332 332 331 331 330 330
315 313 314 315 312 311 314 315 315 315 314 316 314 312 314 314 315 315 316 315 317 332 339 338 340 342 342 347 349 350 349 342 337 336 335 335 336 336 335 337 338 336 337 340 340 339 339 338 338 338 337 337 337 338 340 339 340 339 338 337 336 336 336 337 338 337 336 335 335 334 333 332 332 334 336 335 335 335 335 335 335 335 335 335 334 334 335 335 335 334 332 332 332 331 331 330 331
316 314 314 315 312 311 313 314 316 315 314 315 314 314 315 315 315 314 316 314 318 334 339 337 340 341 341 346 348 348 350 349 341 335 335 335 336 337 335 336 337 336 337 341 341 339 339 338 338 339 338 337 337 337 338 338 338 338 337 337 337 336 335 337 338 338 336 335 335 334 333 333 333 335 336 336 336 336 336 335 335 335 334 335 335 335 335 335 334 333 332 332 332 331 331 332 332
317 315 314 315 313 311 312 313 315 315 315 315 314 315 315 316 316 314 317 315 319 332 338 339 339 340 341 344 346 347 349 354 348 336 334 336 336 336 335 336 337 336 338 342 342 339 339 338 338 339 338 337 337 336 337 336 337 337 336 336 336 336 336 336 337 337 336 335 335 334 333 333 333 334 335 335 335 336 335 335 336 335 334 335 335 335 335 334 334 333 333 333 332 331 332 333 332
315 315 314 314 313 313 312 313 314 315 316 315 315 315 315 316 315 316 318 317 320 326 333 339 338 337 341 343 344 345 347 352 348 337 334 336 336 336 335 337 337 335 338 342 340 339 339 338 338 339 338 338 337 336 336 336 335 335 335 335 336 336 336 336 336 336 335 334 334 334 334 334 333 333 334 335 335 336 335 335 336 335 334 335 335 336 335 333 333 332 333 334 333 332 332 333 333
313 315 314 313 313 314 314 315 315 315 315 316 316 316 316 315 316 319 318 319 321 321 326 335 336 336 339 341 341 341 346 347 341 334 335 337 337 337 336 336 336 335 338 341 340 339 340 340 339 339 338 338 337 337 337 335 335 336 336 336 336 335 335 335 335 335 334 334 334 334 334 334 333 332 334 336 335 335 335 335 336 335 334 335 335 336 334 333 333 332 333 334 334 333 333 333 332
314 314 313 313 313 313 316 316 315 317 317 316 318 318 317 318 320 321 319 318 320 320 321 326 332 336 337 339 339 339 343 343 338 334 335 336 337 338 337 336 335 335 338 340 341 340 340 340 340 339 338 338 337 337 337 336 335 336 337 336 335 334 334 333 334 334 334 334 335 335 334 334 333 332 335 336 334 334 334 334 334 334 334 335 335 336 334 333 333 331 332 333 333 333 333 333 332
315 314 312 313 314 313 317 317 315 319 321 318 319 318 318 321 322 321 320 319 319 322 321 323 330 336 335 336 337 338 341 342 340 339 336 337 339 337 336 337 337 338 339 341 341 340 340 340 339 340 339 338 337 337 337 336 335 336 337 336 334 333 332 332 333 334 334 335 335 335 334 333 333 333 335 335 333 332 332 333 334 334 334 335 335 335 334 334 333 331 332 332 332 332 332 332 331
318 316 314 314 316 316 318 319 316 318 321 320 320 319 321 325 324 322 321 320 320 322 322 323 330 335 335 334 335 338 342 342 341 342 339 338 341 340 339 341 340 341 340 340 341 340 340 340 339 339 339 338 337 336 336 336 336 336 336 335 334 333 332 332 333 334 334 335 334 334 334 334 333 334 335 335 334 334 333 334 335 334 334 334 335 335 334 334 333 332 332 332 332 332 332 331 331
322 320 315 315 317 316 316 320 317 317 320 322 324 322 323 327 324 323 322 320 319 319 320 321 323 328 332 333 333 336 340 340 339 341 339 338 342 343 343 342 341 341 341 340 340 340 339 340 339 339 339 338 337 337 336 336 336 335 335 335 334 334 333 333 333 332 333 334 334 334 335 335 334 334 335 335 336 335 334 334 334 334 334 334 335 335 334 335 334 332 333 333 332 332 332 331 331
324 323 318 317 317 315 315 317 317 317 321 325 322 317 320 325 322 322 322 320 320 318 318 320 319 321 325 329 331 335 339 338 337 340 338 338 342 344 343 342 341 341 340 339 339 339 339 339 339 339 339 338 337 337 337 336 336 335 334 333 333 333 333 333 333 332 333 333 333 334 335 335 335 335 334 333 334 333 333 334 334 335 335 334 334 334 334 334 334 333 334 334 332 332 332 331 332
321 324 320 317 317 316 315 315 315 316 319 324 319 313 321 327 320 321 321 319 320 319 319 319 319 319 320 323 326 331 337 336 336 338 337 338 342 342 342 341 340 340 339 339 338 338 338 338 339 339 339 338 338 337 336 336 335 335 334 332 332 333 332 332 332 333 333 333 333 334 335 334 334 334 333 333 333 331 331 333 334 334 334 334 334 334 334 334 334 334 334 334 332 332 332 332 332
317 321 318 317 317 316 315 313 313 313 316 323 319 315 320 324 320 322 321 319 319 317 319 317 316 322 324 324 325 330 335 335 336 336 335 339 342 341 341 340 338 339 338 339 337 337 337 337 338 339 338 337 337 337 336 335 335 335 334 332 332 332 331 331 332 333 333 333 333 334 334 334 333 333 333 334 333 331 331 333 334 334 334 335 335 334 334 333 334 334 333 333 332 332 332 332 332
317 319 317 315 315 315 315 313 312 314 316 322 322 317 314 315 321 325 321 318 319 321 323 320 321 327 329 327 329 333 335 335 336 338 338 341 341 339 338 336 334 336 338 338 338 337 338 338 338 338 337 336 337 336 335 335 335 335 333 332 332 332 332 331 332 333 333 332 333 334 334 334 333 333 333 334 334 332 332 334 334 333 334 334 334 334 334 334 334 334 333 333 332 332 332 331 331
318 318 316 315 315 314 316 314 315 317 316 317 321 317 311 315 325 326 317 316 323 331 331 327 326 328 328 328 331 335 338 336 337 341 342 340 337 335 334 332 332 333 334 333 333 336 338 339 339 338 337 337 337 336 335 335 335 334 333 332 332 332 333 332 331 332 332 333 334 334 334 334 334 334 334 335 334 333 333 334 334 333 333 334 334 333 334 334 334 333 333 333 332 332 332 330 330
316 316 315 315 315 316 319 319 316 316 317 317 318 315 312 316 323 323 322 322 329 335 332 329 329 328 328 331 335 338 338 338 337 338 336 332 332 334 333 332 332 332 333 333 332 334 337 339 338 338 337 337 337 336 335 334 334 334 332 331 331 332 333 334 333 333 333 334 334 335 334 335 335 335 334 334 334 334 335 334 334 333 333 334 334 333 333 333 333 332 332 333 332 332 332 330 329
315 315 315 315 318 321 322 322 316 314 319 319 316 316 314 314 318 323 330 330 331 334 332 331 333 330 330 332 336 339 337 335 334 332 331 329 329 331 332 331 331 331 333 334 333 333 336 338 338 337 337 337 337 335 334 334 333 333 332 331 331 332 334 335 336 335 335 335 334 334 335 335 335 335 334 333 334 334 334 334 334 333 334 334 334 333 332 333 332 331 331 332 332 332 332 331 330
315 316 314 314 319 321 318 318 315 314 321 319 313 313 312 313 321 328 332 331 329 332 333 333 333 332 333 332 333 336 336 334 332 331 330 328 328 328 328 328 328 330 332 333 332 333 335 337 338 337 337 336 336 335 334 333 333 332 332 332 331 332 334 335 335 335 335 335 334 334 334 334 333 334 333 333 334 334 334 334 334 334 334 334 333 332 332 332 332 331 331 332 331 331 331 331 330
316 317 315 314 317 318 316 317 317 317 320 318 313 312 312 317 326 329 330 331 330 331 332 332 332 332 334 332 330 332 334 334 332 331 330 327 327 327 326 326 327 328 331 332 332 333 335 337 338 337 337 336 336 335 334 334 333 332 332 332 332 332 334 334 334 334 334 334 334 334 334 333 332 333 333 333 333 334 334 334 335 335 334 333 333 332 332 332 332 331 331 331 331 330 330 330 330
315 315 316 317 316 317 318 318 318 318 318 316 316 315 316 324 331 329 330 331 330 331 331 332 332 332 332 330 329 330 332 333 332 331 331 329 327 326 326 327 328 328 330 332 332 332 334 336 336 336 336 335 335 335 335 334 334 333 332 332 332 333 334 333 332 332 333 333 332 332 332 332 332 333 333 333 333 333 333 334 334 334 334 333 332 332 332 332 332 331 331 331 332 331 331 331 330
315 315 317 320 317 316 317 317 316 319 321 320 319 316 319 329 334 331 329 328 329 333 332 332 332 330 330 329 328 329 330 330 330 329 331 330 327 326 327 328 329 329 330 332 332 331 331 333 334 334 334 333 333 334 334 334 333 333 333 332 332 333 334 333 331 331 332 332 331 331 331 332 333 333 333 333 333 333 333 333 333 333 333 332 332 331 332 332 332 332 331 332 332 332 332 332 331
319 317 314 317 319 318 316 317 318 321 324 323 320 320 325 330 332 330 328 330 333 334 332 332 331 329 329 329 328 329 329 328 328 328 329 329 326 327 329 329 330 331 331 330 330 330 330 331 332 332 332 332 333 333 333 333 333 333 332 332 332 334 334 333 332 331 331 330 330 330 331 332 333 333 333 333 333 333 333 333 333 333 332 332 332 332 332 332 332 332 332 332 333 332 332 332 331
320 316 314 317 320 316 314 319 320 317 321 322 317 322 329 330 332 330 329 332 334 334 333 331 330 329 329 330 329 329 329 328 328 328 328 328 327 327 328 329 329 330 330 329 329 329 328 329 331 332 332 332 332 333 333 333 333 333 332 332 333 333 333 333 332 331 330 329 329 330 332 333 333 334 333 333 333 332 332 332 332 332 332 332 332 332 332 332 332 332 332 332 332 332 332 331 331
315 314 316 317 315 314 315 318 320 317 320 321 317 324 331 332 334 332 329 331 333 332 331 330 330 330 330 331 330 330 329 327 327 327 327 328 328 327 327 328 329 328 328 328 328 328 328 328 330 331 332 333 332 332 333 333 333 333 333 333 333 333 332 332 331 330 328 327 327 329 332 333 334 334 333 333 333 333 333 332 332 332 332 332 332 333 332 331 332 332 332 332 332 331 331 331 330
315 314 317 319 319 322 320 316 317 321 323 319 319 331 336 333 333 332 329 331 332 331 330 329 328 328 329 330 329 328 327 326 326 326 327 327 326 325 325 326 327 328 327 327 327 327 327 328 329 329 330 331 331 331 332 333 333 333 333 333 333 333 332 331 330 328 327 326 327 330 332 332 333 333 332 332 332 333 332 332 332 332 332 331 331 332 332 332 332 331 332 332 332 331 331 331 330
316 314 315 319 321 323 322 318 318 321 324 320 321 333 336 331 330 331 330 331 331 331 329 328 327 326 327 327 326 325 324 324 325 324 324 324 323 322 322 322 323 325 325 327 328 327 326 327 328 329 329 330 331 332 332 333 333 333 333 334 334 333 332 330 328 326 325 326 327 329 331 331 332 332 331 331 331 332 331 331 331 330 330 331 331 331 331 331 331 331 331 331 331 330 330 330 330
318 317 314 315 321 322 318 318 317 316 320 323 326 332 333 331 329 329 330 330 329 329 327 326 326 325 325 325 324 322 321 321 321 322 322 322 320 319 319 319 319 320 322 325 327 327 327 328 328 328 328 328 330 332 332 332 332 332 332 332 333 332 329 327 326 325 325 326 328 329 330 331 332 331 331 330 331 331 330 330 329 328 329 331 330 330 330 330 331 331 331 330 330 330 330 330 330
318 320 318 319 326 326 321 324 326 321 319 323 329 333 332 330 328 328 329 327 326 326 326 325 324 323 324 324 322 320 318 318 318 318 319 318 318 317 317 317 317 318 319 321 323 326 327 328 328 328 328 328 329 329 330 331 332 332 330 329 330 330 327 325 325 325 325 327 329 329 331 332 331 331 330 330 330 330 329 329 328 328 328 329 329 329 329 329 330 330 330 330 331 331 331 331 330
Wind_Speed
5 3 1 1 3 4 4 1 1 2 1 3 5 3 7 7 7 6 5 6 5 3 4 4 5 5 3 5 11 11 9 4 1 2 2 7 20 27 27 27 29 29 28 25 23 23 23 23 22 22 21 21 21 22 23 22 21 20 22 22 22 22 21 21 20 20 20 20 19 19 20 19 19 17 17 17 18 21 19 17 17 18 18 18 19 18 18 18 18 17 16 15 14 18 22 21 20
5 3 3 5 5 3 2 1 1 2 1 4 4 4 8 6 3 2 7 8 4 1 4 4 4 5 4 7 12 11 10 7 7 6 8 19 25 24 26 26 28 28 26 25 24 24 23 22 22 22 21 21 21 22 23 23 22 21 22 23 22 22 21 20 20 20 20 19 19 19 20 20 19 17 17 17 19 20 18 16 18 18 18 17 17 16 17 17 16 16 15 14 14 18 22 20 20
5 4 5 7 6 3 2 0 1 1 2 5 4 6 7 2 3 6 7 8 5 2 4 4 4 4 4 10 10 7 6 6 11 9 9 20 18 19 26 24 26 26 25 24 24 24 23 22 22 22 21 22 21 22 23 23 22 22 23 23 23 21 20 19 19 19 19 19 18 20 20 20 19 18 17 17 20 20 17 17 18 17 17 16 15 15 16 16 15 14 13 13 13 18 21 20 21
6 4 5 4 2 1 1 0 3 2 3 4 4 5 0 3 5 7 5 6 6 3 2 3 4 5 9 12 9 8 7 5 10 9 6 14 19 25 26 21 24 24 23 22 23 23 22 22 22 22 22 22 21 22 24 24 23 23 23 23 22 21 20 18 18 19 19 18 18 20 19 19 19 18 17 18 21 20 16 17 18 17 16 15 14 14 14 14 13 13 12 12 12 16 21 20 20
6 5 6 4 1 0 0 1 3 3 5 4 3 4 4 4 5 5 2 3 5 5 3 2 3 5 10 9 5 5 6 6 9 12 10 17 28 30 25 23 24 23 21 20 21 23 22 22 22 22 22 22 21 23 25 25 24 23 23 22 21 21 19 17 17 18 18 17 18 18 18 18 18 18 16 18 21 19 16 18 18 16 15 14 13 13 13 12 12 12 12 11 11 14 19 20 19
5 5 7 5 2 1 0 2 3 5 7 5 4 3 3 5 5 5 5 4 4 5 4 3 4 7 8 6 6 4 5 9 9 13 17 22 29 28 25 25 25 23 21 18 19 22 21 21 21 22 22 21 22 23 25 25 24 23 22 21 22 21 18 17 17 17 18 17 17 16 17 18 18 17 17 19 20 18 17 18 17 15 14 13 13 13 13 11 11 11 11 10 11 13 17 19 18
4 4 3 3 2 2 0 4 5 5 8 8 5 3 3 5 4 5 7 6 4 3 3 2 8 11 6 4 5 10 13 15 11 16 23 26 27 26 25 26 26 24 20 17 19 21 21 21 22 21 21 22 22 23 25 24 23 23 22 22 22 20 17 17 17 18 18 17 17 17 17 18 17 18 18 19 19 18 17 17 16 15 13 13 13 12 12 10 10 10 10 10 12 13 16 18 18
6 3 0 1 1 1 2 4 5 5 9 7 4 4 4 5 4 4 4 2 2 1 4 2 9 12 6 7 6 9 20 22 22 24 28 27 26 25 25 26 26 24 20 18 20 22 21 21 22 21 22 22 23 24 24 23 22 22 22 23 22 19 18 18 18 18 18 18 19 19 19 19 18 19 19 19 17 17 16 16 15 14 13 13 12 12 11 10 9 8 9 11 13 14 16 18 17
6 4 1 1 2 3 3 5 6 8 10 5 4 5 5 3 3 3 2 2 2 0 4 4 8 12 7 12 9 6 15 23 28 26 26 25 24 25 25 27 26 24 21 19 21 22 21 22 22 22 23 22 23 24 24 23 21 22 23 23 21 19 18 18 19 20 19 19 19 19 19 19 19 20 19 18 16 15 15 16 15 14 13 12 11 10 10 9 8 8 10 13 14 15 17 17 17
3 4 1 1 2 4 5 5 6 7 7 3 5 5 4 3 3 3 3 3 3 5 1 8 14 14 11 11 7 6 12 22 26 24 24 23 24 27 27 27 24 22 21 20 22 23 21 21 22 23 23 22 23 24 23 23 21 21 23 23 20 18 18 19 20 21 20 19 18 19 19 19 19 19 18 16 15 14 15 16 15 14 13 12 10 10 9 8 7 9 12 14 16 17 18 17 16
1 3 1 2 3 4 5 5 7 7 5 4 3 3 3 4 4 3 5 4 5 7 4 9 13 13 13 8 4 9 17 22 23 24 24 22 25 28 28 26 22 21 21 22 23 23 22 21 22 23 23 23 24 23 23 22 21 22 24 22 19 18 18 19 21 20 19 18 17 18 18 18 18 17 16 15 15 14 14 16 14 13 13 12 10 10 9 7 8 10 13 15 17 18 17 16 15
2 3 1 3 4 5 5 5 7 6 2 4 2 2 2 4 5 4 7 6 5 7 5 7 9 10 11 5 4 11 18 17 20 24 24 25 27 28 27 25 23 21 20 23 25 24 23 22 22 23 23 24 23 23 23 22 22 24 24 21 19 18 19 20 21 20 19 18 17 17 18 17 17 17 15 14 14 13 14 14 13 12 13 12 10 10 8 8 9 11 14 15 17 18 16 15 15
2 4 2 4 4 4 5 6 7 4 3 2 1 3 2 6 7 4 5 4 7 5 6 10 10 10 8 4 5 8 12 15 19 23 26 28 28 28 27 25 23 22 23 26 26 24 24 23 23 23 23 24 23 23 23 23 24 25 23 21 19 19 20 21 21 20 19 18 17 17 17 17 17 16 14 13 12 13 13 13 12 11 12 11 9 9 8 8 11 12 13 15 18 18 16 15 16
4 3 3 4 4 5 5 6 6 2 1 2 2 1 2 5 5 2 2 3 4 4 8 11 12 12 7 4 4 4 10 18 20 22 26 27 27 27 26 24 23 23 24 26 27 25 24 24 24 23 22 23 24 24 24 25 26 25 22 21 20 20 21 21 21 20 19 18 18 17 16 16 16 15 13 11 11 12 12 12 11 10 10 10 9 9 8 9 12 12 13 15 17 18 16 16 17
5 2 3 3 4 5 4 6 6 1 2 4 1 0 1 4 4 4 2 2 2 4 7 8 7 8 7 7 5 7 14 22 21 22 25 26 27 26 25 25 24 24 24 25 26 25 25 25 25 24 23 24 25 25 25 25 25 24 22 22 22 22 22 21 21 20 20 19 18 18 16 15 15 14 12 11 11 11 11 11 10 10 9 9 9 10 9 10 12 13 14 15 16 18 17 16 17
5 3 2 3 4 5 4 5 4 2 2 2 3 2 2 5 3 2 2 2 3 4 6 5 3 6 10 9 9 15 21 25 23 24 25 25 26 26 25 25 24 24 23 25 25 25 25 25 25 24 23 24 26 26 25 25 23 22 22 23 22 21 20 20 20 20 20 19 19 18 16 16 15 14 12 12 12 11 12 11 9 9 9 9 10 11 10 10 13 13 15 17 18 19 18 17 16
4 3 3 4 5 5 4 4 2 2 1 5 7 6 4 3 2 1 1 2 5 7 8 5 4 7 9 9 17 25 27 26 24 25 24 23 25 24 24 24 24 24 24 25 25 24 24 24 25 25 24 25 26 26 25 23 21 21 22 21 20 19 19 19 19 20 20 20 19 17 16 17 16 15 14 13 12 11 12 11 10 10 9 9 11 12 10 10 12 13 16 18 19 20 18 17 16
4 3 4 5 4 4 5 2 2 2 1 3 4 5 5 3 4 4 3 4 9 10 8 7 8 8 11 19 26 27 27 26 24 23 21 20 22 20 20 23 23 24 25 26 24 24 24 24 25 24 25 25 25 25 24 23 21 22 22 20 18 18 18 19 19 20 20 20 19 18 17 18 17 16 15 14 13 11 11 11 11 11 10 10 12 12 10 10 12 13 15 17 18 18 17 16 14
4 3 4 5 5 7 8 2 4 2 3 3 3 5 3 3 5 3 3 4 7 10 6 8 10 9 12 20 25 25 25 24 22 21 18 17 18 17 18 20 22 25 26 26 25 25 24 24 24 24 25 25 24 24 23 23 22 22 21 19 19 18 19 20 20 20 20 20 19 18 18 18 17 16 16 14 13 12 10 11 12 11 11 11 12 12 11 10 11 13 14 16 17 16 15 14 13
4 3 4 5 5 6 9 3 6 5 6 5 5 5 3 4 4 3 4 7 5 10 7 7 8 8 10 13 18 22 22 21 20 19 18 16 18 19 19 19 22 26 26 25 26 25 25 25 24 24 25 24 23 23 23 22 21 21 20 19 19 19 19 19 19 18 18 19 19 19 19 17 17 17 16 14 13 13 11 11 12 12 12 13 13 12 12 11 11 12 14 15 15 15 15 14 12
3 5 6 6 6 7 7 2 7 6 7 4 5 5 6 4 2 2 5 6 5 8 8 11 12 12 12 11 13 16 17 17 12 7 5 9 16 20 20 20 20 26 27 25 25 26 25 26 26 24 23 23 21 22 23 22 21 20 20 19 19 20 20 19 19 19 18 18 19 19 19 18 18 17 16 15 14 14 13 12 12 12 12 13 14 13 12 12 11 11 13 15 14 15 15 13 9
3 6 8 8 8 8 5 3 6 5 6 3 3 4 5 3 2 2 4 3 3 6 9 13 15 14 14 12 11 12 12 11 11 9 4 11 13 19 20 20 19 23 26 23 23 28 30 27 26 24 23 21 19 22 23 23 22 21 20 20 21 21 21 21 21 20 20 20 19 19 19 19 19 18 17 16 14 12 12 11 12 12 12 13 15 15 14 12 11 10 12 14 14 12 11 10 4
3 5 6 8 8 7 7 2 4 6 5 3 2 3 3 5 5 3 4 2 6 8 10 12 12 12 13 12 11 12 10 10 10 14 19 18 15 19 21 20 21 22 23 23 27 29 28 27 28 28 27 25 21 22 25 24 22 21 21 23 24 24 24 23 22 21 21 21 20 19 20 21 20 18 17 16 13 11 11 11 12 13 13 15 16 16 15 13 11 10 10 11 12 9 8 7 3
6 6 6 7 8 8 7 3 3 5 4 1 2 4 5 4 4 3 5 1 10 11 10 12 11 12 12 10 9 11 11 11 14 20 25 22 17 19 21 21 22 22 22 23 25 24 25 28 32 33 31 30 28 26 27 27 24 23 23 24 25 26 25 23 22 22 22 21 20 20 20 21 20 18 17 16 14 12 11 11 12 13 14 15 16 16 14 13 13 11 10 9 9 7 5 6 3
7 7 7 7 7 7 6 5 3 2 3 2 3 4 5 5 4 4 7 2 11 13 11 12 12 12 11 9 8 9 10 11 14 17 22 22 16 16 19 21 22 22 23 21 22 26 27 28 31 34 31 30 31 30 31 30 27 26 25 26 27 26 25 24 23 23 22 21 21 21 20 21 20 18 18 16 15 13 11 10 11 12 13 14 15 15 12 12 12 11 11 9 8 8 7 6 4
7 8 7 7 8 7 6 6 4 2 3 3 3 5 6 7 5 5 8 5 9 15 13 12 13 13 11 10 9 8 10 11 12 14 19 19 15 14 16 19 22 24 25 22 25 30 26 26 29 33 31 30 31 30 31 31 28 28 27 27 28 26 26 26 25 23 23 22 22 21 20 20 19 19 19 17 16 14 12 9 9 10 10 12 12 11 11 10 10 11 11 11 11 12 9 7 7
5 6 6 8 8 7 5 5 4 3 4 4 3 5 7 6 4 5 8 8 8 14 14 14 14 12 11 10 8 8 9 11 14 16 16 13 10 11 15 18 22 24 26 24 27 28 23 25 30 31 30 31 31 31 31 30 29 29 28 27 27 26 26 26 25 23 23 24 22 21 20 20 19 18 17 17 16 15 14 11 10 10 10 11 9 10 11 9 9 11 11 12 13 12 10 8 8
4 2 4 8 7 6 5 6 6 2 3 5 4 6 7 5 4 5 7 9 7 12 14 14 13 12 11 10 8 6 6 9 11 7 2 5 8 8 6 8 22 25 26 25 26 26 23 24 28 28 28 29 30 31 32 30 29 29 28 27 26 26 25 25 25 23 23 23 22 21 20 20 20 18 17 17 15 13 15 14 13 12 11 11 10 10 12 11 10 11 11 12 11 11 11 10 9
6 4 3 6 5 6 7 6 6 3 2 5 4 5 6 5 8 9 8 8 8 8 13 13 12 11 10 9 7 5 6 6 10 12 6 4 4 7 16 9 14 24 24 25 25 26 24 23 25 24 24 26 28 30 32 30 30 29 27 26 26 26 25 25 26 24 24 22 20 20 20 21 20 18 17 15 13 13 15 14 14 13 11 12 12 10 11 12 12 11 11 11 10 12 13 13 12
5 5 3 4 4 6 9 7 7 6 6 7 5 3 6 7 9 11 8 9 9 6 11 12 11 9 9 8 7 6 5 8 11 9 12 15 14 9 3 8 7 21 24 26 27 26 24 23 23 23 22 23 27 29 30 30 29 28 26 23 24 25 24 25 26 25 24 22 19 19 21 21 19 17 15 13 14 15 15 13 13 13 13 13 13 12 12 12 12 12 12 11 10 12 14 15 13
4 3 3 2 2 8 9 7 9 10 8 8 7 3 7 8 9 11 9 11 10 8 11 10 10 8 8 7 7 6 5 8 12 15 17 17 15 12 10 5 9 19 26 27 28 26 25 24 23 23 22 22 28 30 29 29 28 27 24 22 23 24 24 24 25 25 23 21 19 19 21 20 18 15 12 13 15 15 14 13 13 13 14 14 13 13 12 11 10 11 11 13 13 12 15 16 13
2 1 4 2 4 9 9 7 11 11 6 9 9 3 7 8 10 9 8 11 8 10 11 10 10 9 9 8 7 7 5 7 13 14 14 18 16 14 15 12 10 17 25 26 26 26 25 25 24 24 23 23 29 30 28 26 25 25 24 22 23 23 23 22 23 24 22 21 19 19 20 17 17 14 10 13 14 13 14 13 13 14 14 14 14 13 12 11 11 11 12 14 17 16 16 18 17
2 4 4 4 5 8 8 8 14 15 7 9 9 3 6 8 8 8 10 15 9 11 11 9 10 8 8 7 6 7 5 5 8 11 15 16 16 18 16 14 11 16 20 22 23 25 25 24 24 26 25 24 28 30 27 24 24 25 24 23 23 22 22 21 21 22 22 21 19 18 17 15 15 13 10 13 14 12 14 13 13 13 12 13 14 14 11 11 13 15 15 16 18 18 18 20 20
3 3 5 6 7 7 6 5 11 15 7 7 8 4 7 10 9 10 6 10 10 11 11 10 10 8 7 6 6 7 6 6 6 10 16 16 16 18 14 13 13 14 18 20 19 23 24 25 26 26 24 24 25 26 25 25 26 24 23 23 24 22 21 21 20 21 21 21 19 18 16 14 15 11 9 14 14 12 13 13 12 12 12 13 14 13 12 13 14 16 18 17 16 19 20 19 19
5 5 5 6 8 7 7 4 7 11 7 8 8 5 10 11 10 10 4 7 11 9 10 11 11 10 9 8 7 7 7 7 7 11 18 17 16 15 10 13 15 14 17 20 20 23 24 24 26 25 23 24 23 21 21 23 23 21 20 21 21 22 22 21 22 22 21 21 19 18 16 15 16 12 8 12 14 12 13 14 14 13 13 14 14 12 12 14 14 16 19 18 16 17 18 18 18
10 8 5 5 6 6 8 5 8 10 7 7 8 7 10 9 8 8 4 3 7 8 9 10 11 10 9 9 8 8 8 8 8 15 20 19 18 15 11 15 18 16 19 23 22 23 23 23 25 24 22 23 23 20 18 19 19 18 19 21 20 20 21 22 23 24 23 22 20 19 17 16 15 14 11 12 14 11 10 15 15 15 15 14 15 13 13 15 14 16 19 20 18 17 17 17 17
11 8 4 4 4 6 9 6 12 9 6 5 7 8 7 7 7 7 4 2 1 5 7 7 10 9 9 10 9 10 10 8 9 17 22 23 21 18 14 17 21 20 22 25 24 23 24 23 24 24 23 23 23 22 20 19 20 20 19 20 20 19 20 22 22 24 25 23 22 21 20 18 16 15 14 14 14 10 9 15 17 15 15 15 15 13 13 14 14 16 20 20 19 19 19 17 18
10 8 5 6 4 6 10 5 13 7 6 5 6 4 3 6 7 9 5 3 3 6 6 5 9 10 8 10 10 9 8 6 9 13 18 23 23 21 22 23 26 25 25 27 25 23 23 24 25 26 26 26 27 27 25 23 24 24 22 21 20 19 20 22 22 24 26 23 21 21 21 20 18 17 16 15 16 13 11 15 19 16 15 15 14 13 14 15 15 18 20 19 18 19 19 18 20
7 5 4 5 4 5 9 2 7 3 4 5 4 5 3 6 5 9 9 7 7 6 7 7 10 11 9 10 10 9 8 8 9 10 13 19 22 24 27 28 29 29 27 27 26 23 23 25 27 29 29 28 29 29 28 26 24 24 24 23 23 21 19 21 22 22 24 22 19 20 21 21 19 19 18 17 17 16 14 14 17 17 16 15 14 15 16 15 16 19 20 20 18 18 19 20 19
1 2 3 4 4 4 5 2 0 1 2 4 6 5 3 5 5 7 8 9 8 6 7 6 9 12 12 13 12 10 11 11 12 12 11 14 20 25 27 29 30 30 28 28 28 27 27 28 28 29 30 29 29 29 30 28 22 19 21 21 23 24 19 18 19 18 20 20 18 20 22 21 20 20 19 19 17 17 16 15 16 17 16 15 15 17 17 16 18 19 19 20 21 20 20 20 16
1 0 2 4 5 6 6 6 4 3 2 2 7 3 3 3 4 6 7 7 6 5 7 6 5 9 11 12 13 13 14 14 14 13 10 10 14 20 26 30 31 30 31 34 33 32 31 30 30 30 31 30 30 30 31 30 24 20 21 20 21 24 21 19 18 18 19 19 19 21 23 22 21 20 19 19 18 18 18 16 16 17 17 16 16 16 17 17 19 20 19 19 21 22 21 20 14
3 1 4 4 7 9 9 10 7 4 4 2 5 1 5 5 6 6 6 7 7 6 6 8 8 5 6 6 7 11 14 15 15 14 11 10 12 16 23 29 30 30 33 36 34 33 32 32 32 33 33 31 31 32 31 32 29 26 26 26 24 23 23 23 23 24 26 24 22 23 23 22 20 20 19 17 17 17 17 17 17 17 17 18 17 16 17 18 20 20 20 19 21 23 23 21 16
2 3 4 6 8 9 8 10 7 1 3 4 3 4 4 4 4 7 6 6 9 8 8 10 6 3 4 3 5 2 9 10 9 11 10 9 11 14 18 23 27 29 35 38 35 33 34 34 35 35 32 29 30 31 32 33 32 32 31 30 30 28 27 28 28 29 29 27 24 24 23 21 20 19 18 16 15 15 18 18 16 16 18 18 17 16 17 19 20 20 20 19 20 22 24 23 19
4 5 7 9 8 9 10 9 6 2 3 5 2 3 1 3 5 6 5 6 6 5 8 5 2 9 10 9 10 5 6 8 7 8 7 6 6 9 14 16 16 18 27 33 32 31 32 31 32 33 30 28 30 31 32 34 34 34 32 31 31 32 31 31 32 30 28 27 26 26 23 21 20 19 18 17 15 15 19 19 16 15 18 19 17 17 18 19 20 20 19 19 19 21 23 24 22
5 7 10 8 5 8 9 5 3 2 2 6 5 3 1 3 5 6 7 6 3 8 10 10 9 11 12 10 11 10 3 5 6 5 7 10 13 19 22 20 14 12 12 13 14 19 27 28 29 30 29 28 30 31 31 31 31 31 31 30 31 32 31 30 32 31 29 29 27 25 23 22 20 19 19 19 17 17 19 19 18 16 18 20 18 17 19 19 20 20 20 19 19 20 22 23 23
6 8 9 7 5 5 2 3 2 4 3 4 5 1 1 4 5 4 4 3 4 6 8 10 11 11 12 11 11 13 11 9 10 10 11 13 15 19 23 22 19 17 15 12 12 15 20 22 26 30 30 30 30 31 30 29 28 28 28 29 30 31 29 29 30 31 31 31 28 25 23 21 19 18 19 20 19 19 19 17 18 17 18 20 19 17 19 19 19 19 19 19 20 21 21 21 21
7 8 5 4 5 2 3 3 4 4 3 5 6 3 2 4 5 4 3 3 3 4 6 8 9 11 11 10 10 11 12 12 12 12 11 13 13 15 21 24 24 24 25 23 18 17 19 18 22 25 25 29 29 28 29 28 27 26 27 28 29 30 30 29 29 29 30 30 29 26 23 21 20 18 18 19 20 19 18 17 18 18 18 19 18 18 18 18 18 18 20 20 20 21 21 21 20
3 2 1 2 4 4 4 5 4 1 5 5 5 5 3 2 3 4 3 4 5 6 6 7 8 9 9 10 10 9 8 10 11 10 9 10 10 10 14 18 22 25 25 22 17 19 24 22 20 21 21 24 25 25 26 27 26 25 26 27 28 30 31 30 29 29 30 29 28 27 24 22 20 18 19 20 18 17 18 20 19 18 18 18 18 17 18 19 18 18 21 21 20 21 20 20 20
2 2 2 2 2 3 2 1 0 3 5 5 5 5 4 3 1 3 3 5 6 7 7 7 8 8 9 11 11 10 9 9 8 7 6 6 6 8 11 14 16 18 21 22 20 21 26 25 21 21 21 20 21 23 24 26 26 26 27 27 27 29 30 29 29 29 29 30 28 27 25 23 20 19 20 20 18 17 18 19 19 19 19 18 17 16 18 20 18 19 21 20 20 20 20 19 20
5 3 3 4 2 0 1 3 3 4 5 5 4 1 1 3 1 4 4 4 5 8 8 8 10 10 9 10 11 11 10 9 8 7 6 3 2 4 6 8 11 15 19 23 23 19 21 23 22 21 21 20 19 21 24 26 27 27 29 28 26 27 28 27 27 26 28 29 28 27 26 25 22 20 21 21 20 19 18 17 17 18 18 18 18 17 17 19 19 20 21 20 19 19 19 19 20
4 6 6 5 4 3 3 3 3 4 3 2 1 1 1 3 2 3 2 3 5 8 8 9 10 9 9 10 11 11 10 9 7 6 6 4 3 6 6 6 8 14 19 21 18 13 12 16 18 21 22 20 18 19 23 25 26 27 29 28 25 25 26 25 25 26 27 27 26 26 25 24 23 21 21 21 20 19 18 16 14 15 15 16 17 18 18 19 19 20 20 19 18 18 19 19 19
3 4 5 4 4 4 4 4 4 4 1 2 1 2 2 3 1 3 4 6 7 9 9 10 10 9 9 11 11 10 9 9 8 8 9 6 4 6 5 5 8 13 16 15 13 13 13 15 17 21 23 20 17 18 20 22 23 24 27 27 24 23 24 24 24 25 26 25 24 25 24 23 22 20 20 21 19 18 18 17 15 14 16 16 15 16 19 18 18 19 19 19 18 19 19 17 18
2 1 2 6 7 6 3 4 4 3 4 2 2 4 2 2 2 7 8 9 10 10 10 11 10 10 11 10 9 9 9 9 9 9 11 10 8 8 6 2 7 11 10 10 14 17 18 16 14 17 20 17 15 16 17 19 21 22 26 26 23 23 25 24 23 23 25 25 23 23 23 21 21 20 20 21 19 17 18 18 17 16 16 16 13 13 16 17 17 18 18 18 19 20 19 17 17
2 2 3 4 4 4 2 1 2 2 2 3 3 6 1 1 1 6 9 10 9 9 10 11 11 12 11 9 9 10 11 11 11 11 10 11 13 14 12 10 8 11 11 12 15 17 15 9 7 8 10 14 16 16 16 18 21 24 25 25 25 26 26 24 24 24 25 25 23 23 23 21 20 20 20 20 20 19 18 18 18 17 16 16 15 13 14 15 16 16 16 17 17 18 18 17 16
6 4 2 2 2 3 1 1 2 1 1 2 2 6 3 2 0 3 7 7 6 7 10 11 13 13 10 9 10 11 11 10 10 10 9 9 15 19 20 19 12 7 11 16 17 16 13 8 5 6 4 8 15 16 17 20 24 27 27 26 26 27 26 26 25 25 25 25 24 23 23 22 20 20 20 21 22 21 19 18 18 17 17 16 16 15 14 13 14 15 15 16 16 17 17 17 15
5 4 3 0 4 4 2 3 3 3 2 2 2 4 2 1 1 2 4 5 6 7 9 10 11 12 11 11 11 11 11 11 10 11 11 13 19 23 24 24 22 19 17 18 17 15 14 10 6 5 3 7 13 17 21 25 28 29 27 25 25 26 26 26 26 25 25 25 23 23 22 21 20 21 21 22 22 21 20 19 18 17 17 16 16 16 14 13 13 14 14 15 16 16 17 17 16
1 2 3 3 1 1 2 2 2 3 2 2 2 2 1 1 2 3 4 6 7 8 10 9 9 10 11 12 12 11 12 13 12 12 12 14 18 21 22 23 25 25 24 22 16 10 10 9 9 8 6 8 13 18 23 25 25 24 22 22 25 26 26 26 25 24 24 23 22 21 20 19 21 23 22 21 21 21 20 18 17 16 17 17 16 16 15 14 14 14 13 15 17 17 16 16 16
4 2 2 2 3 2 1 1 3 2 2 0 2 2 2 1 2 3 5 7 7 8 9 8 8 10 10 9 11 12 13 13 13 13 11 11 13 15 16 18 19 19 21 22 18 11 3 4 7 6 5 8 11 16 20 20 20 20 20 20 23 26 26 25 24 23 23 23 21 19 18 20 23 23 21 19 19 19 20 19 17 16 16 16 16 16 15 15 14 14 13 14 16 17 17 16 15
Wind_Direction
275 272 306 3 319 323 298 214 92 288 159 265 262 249 263 234 237 288 1 34 60 15 359 32 39 41 38 95 106 76 43 32 43 118 116 128 119 118 127 133 138 143 145 145 144 147 152 156 157 157 159 159 159 157 154 154 153 153 151 150 145 141 137 133 131 129 129 126 124 122 119 116 112 109 107 103 102 104 105 104 102 98 96 92 88 85 82 80 79 81 85 86 90 102 107 108 111
256 265 304 301 284 298 274 170 103 264 174 266 258 221 256 262 238 83 64 57 60 3 7 14 35 34 25 91 106 78 50 49 75 87 102 118 114 116 126 133 140 141 141 142 142 146 152 156 159 159 160 160 159 158 156 155 155 155 153 151 147 143 139 134 132 131 130 127 126 124 121 120 118 116 110 106 106 107 108 106 104 102 99 95 91 87 85 83 80 78 80 80 88 107 114 114 112
248 265 294 292 268 240 295 9 188 233 211 253 264 239 243 232 139 107 84 83 93 52 12 355 22 21 35 67 71 77 89 78 89 91 111 120 113 118 125 132 140 137 135 138 141 146 152 157 161 161 160 160 159 158 157 157 157 156 154 152 149 145 140 134 133 132 132 130 129 128 126 125 124 121 113 109 111 112 113 110 108 106 101 98 93 89 87 85 82 78 75 73 83 110 120 118 114
256 255 274 288 275 227 346 208 193 205 233 247 280 285 329 101 100 94 95 109 125 127 42 23 40 36 67 78 70 80 101 97 100 102 110 114 118 127 124 125 133 133 131 136 143 147 153 158 161 161 160 160 158 158 158 158 158 157 156 153 149 147 140 134 135 135 136 134 131 130 130 131 128 123 114 111 117 119 118 113 112 111 105 102 99 96 93 88 85 81 78 74 78 109 124 123 117
266 252 259 260 278 212 152 242 200 203 230 222 252 313 45 61 46 59 67 113 129 120 91 71 76 60 64 67 65 91 112 102 89 96 99 107 122 127 120 123 129 128 130 138 146 147 153 159 161 160 159 158 157 158 159 159 158 157 156 152 149 147 140 137 140 140 139 134 131 132 133 136 132 125 117 116 122 124 120 115 114 113 111 110 107 103 98 93 88 83 82 79 78 105 126 128 123
280 280 264 238 254 309 73 263 250 243 242 227 241 285 66 61 28 20 14 36 87 103 120 95 100 91 73 59 56 50 116 120 96 103 111 114 123 124 120 123 125 128 135 142 145 147 153 158 160 160 159 158 157 158 159 160 158 157 155 152 150 147 141 142 145 144 141 134 132 133 136 139 137 129 124 124 126 126 121 118 116 113 115 115 109 104 101 98 93 88 85 81 83 103 126 133 129
274 299 274 212 262 282 171 249 255 266 258 248 228 206 100 73 53 26 18 24 26 68 115 87 102 94 74 90 64 33 73 110 111 114 121 122 124 120 120 124 126 132 139 144 145 148 153 159 160 158 158 159 159 158 158 159 158 157 157 156 152 146 143 145 146 144 141 137 133 131 135 140 138 133 131 131 130 130 126 121 118 117 117 114 111 107 105 102 94 88 84 85 90 105 125 134 132
249 268 288 163 266 248 201 247 249 250 262 264 201 145 80 76 76 44 30 33 334 109 141 196 108 90 53 75 84 49 72 101 113 118 125 127 127 123 124 128 131 135 141 144 144 148 154 159 159 159 159 159 159 157 157 157 157 159 160 158 151 146 144 143 143 142 142 138 132 128 133 139 140 137 137 136 133 130 129 128 125 122 120 116 114 109 107 100 92 86 85 96 100 110 124 132 131
236 222 283 213 219 264 242 252 248 242 255 255 167 129 92 107 113 86 38 356 308 215 180 204 103 97 90 80 90 76 77 104 116 121 125 124 127 128 128 130 134 138 143 144 144 150 155 159 160 159 160 159 159 156 157 156 158 162 160 156 150 147 144 142 141 141 142 138 132 130 135 141 142 139 140 139 137 134 137 140 132 127 125 118 114 107 104 98 94 88 92 108 113 117 125 128 126
217 195 248 260 228 268 261 260 253 255 254 200 152 133 103 94 88 83 40 4 348 329 308 94 91 106 110 91 93 101 104 115 119 123 125 123 126 129 130 130 139 144 145 145 146 152 154 159 161 159 160 159 158 156 157 156 157 160 157 154 150 148 146 144 143 143 143 139 136 136 140 145 143 142 144 143 142 142 143 142 132 130 128 118 114 108 104 100 100 97 100 116 122 123 125 125 120
239 212 192 264 256 252 252 257 257 264 233 148 106 88 79 88 86 51 32 12 4 324 298 88 96 108 101 95 99 116 124 126 127 130 129 127 127 130 132 135 149 153 149 148 149 152 154 159 159 158 158 157 157 156 157 157 156 157 156 155 152 151 152 149 147 146 143 142 142 141 146 149 146 146 147 147 144 141 139 135 131 133 128 119 114 109 109 108 108 106 105 118 129 127 125 121 109
245 252 169 229 238 231 245 256 261 274 224 112 97 132 129 103 90 55 39 6 336 322 328 95 124 112 96 101 110 126 130 135 137 135 134 132 134 137 138 143 153 155 152 152 151 153 156 158 158 157 158 157 158 158 158 157 156 157 157 157 155 156 156 153 152 151 145 145 147 145 149 152 151 150 148 149 147 143 139 134 134 134 126 120 115 112 117 118 114 111 107 117 133 132 125 114 100
213 248 199 233 239 243 263 268 272 306 11 50 197 190 111 75 69 50 47 330 303 336 45 97 125 103 94 113 115 132 135 148 144 138 138 135 141 142 142 148 152 151 151 154 154 155 156 156 157 158 158 158 159 159 159 158 158 158 159 159 158 160 158 157 157 155 150 150 151 149 151 154 155 153 148 151 150 146 143 139 135 132 128 121 119 122 124 121 115 111 106 114 133 135 125 111 99
209 232 207 250 273 275 278 276 285 346 6 266 251 332 44 78 104 115 126 251 317 41 86 100 113 97 105 136 126 150 150 159 151 143 142 135 141 143 143 147 148 148 149 153 155 156 157 157 158 158 158 159 158 159 159 160 160 160 161 162 162 161 159 160 162 159 156 154 155 154 152 153 154 153 151 155 155 149 148 144 134 132 132 124 125 132 128 122 118 113 106 111 130 137 126 111 103
213 239 226 262 284 283 278 268 281 89 207 247 206 221 50 70 105 106 119 207 35 75 97 98 114 108 145 167 163 174 159 160 154 147 144 137 139 142 144 145 145 148 149 153 154 156 158 158 159 159 159 159 160 160 161 162 163 163 163 165 164 161 161 164 165 163 160 159 158 156 154 152 153 154 154 162 166 158 153 151 143 135 129 129 134 137 130 125 126 117 108 111 127 137 130 115 108
211 235 249 270 268 275 276 279 310 91 231 323 44 358 79 80 76 109 155 172 74 63 79 86 109 132 164 172 158 157 154 160 157 150 148 142 139 141 145 146 146 149 152 153 153 156 159 160 159 160 161 161 163 163 164 165 165 166 166 166 164 163 165 166 165 164 164 163 160 156 154 153 155 157 157 168 173 169 163 160 156 141 130 135 138 140 134 128 133 124 114 116 122 129 129 120 113
216 216 245 260 255 260 266 286 8 122 246 27 37 5 33 75 2 21 148 128 86 67 68 68 65 119 148 139 140 149 152 158 157 152 152 146 140 143 148 150 150 151 155 156 155 156 158 161 160 161 163 164 166 166 166 166 166 166 167 166 164 165 167 167 166 168 168 166 163 159 157 155 156 157 157 169 172 174 171 164 161 146 139 141 138 142 139 129 135 132 121 121 123 125 127 122 116
220 193 220 245 248 244 260 270 116 168 114 39 45 24 16 26 357 354 5 41 87 80 69 76 75 88 107 121 135 144 150 158 158 155 155 150 146 148 155 160 156 154 158 159 159 157 157 159 159 161 163 164 167 168 166 164 165 166 166 166 164 165 166 167 168 168 169 167 165 161 157 155 157 157 159 166 167 172 173 168 165 154 149 147 141 142 141 132 133 136 129 127 130 128 127 122 114
213 199 215 230 234 240 265 311 85 80 60 24 39 70 34 7 356 342 351 5 96 102 80 77 84 90 106 123 135 144 152 158 159 158 160 158 154 156 165 169 160 156 161 161 160 159 160 160 159 163 164 165 168 168 167 164 165 166 165 165 163 162 163 167 167 167 166 165 164 158 154 155 159 159 161 164 161 161 161 163 169 164 157 153 149 146 146 139 132 138 137 134 136 134 130 123 112
208 200 233 242 242 265 283 335 73 50 52 18 6 47 354 338 355 348 343 344 82 118 113 97 104 120 127 133 142 147 151 157 161 162 165 161 159 163 172 174 161 157 162 160 158 158 161 160 160 165 165 165 167 166 166 165 166 166 166 166 163 164 166 166 165 164 165 164 162 157 155 156 158 158 159 160 156 153 149 152 164 168 160 156 157 155 152 148 138 139 143 144 141 138 134 123 112
197 194 226 254 269 284 290 26 71 56 65 29 342 357 326 316 51 9 330 343 77 129 149 141 144 150 146 149 150 147 150 155 144 120 158 178 166 168 177 178 161 156 161 159 153 154 162 164 161 162 161 162 164 164 165 165 167 170 170 168 166 167 168 165 164 163 164 166 162 159 158 158 157 156 158 158 155 154 151 152 159 164 161 157 162 162 158 155 149 143 149 154 148 143 137 127 120
202 220 225 239 258 267 282 48 80 78 73 43 327 308 298 312 40 8 304 287 147 157 161 152 156 158 152 152 149 148 151 130 85 77 222 237 190 172 179 177 162 152 152 151 151 158 165 163 156 155 156 158 165 168 166 166 170 174 175 172 170 170 168 166 168 166 167 171 167 162 161 161 159 156 157 157 157 159 157 157 158 162 161 157 161 164 161 160 159 151 151 158 159 156 148 144 143
223 251 234 234 246 258 280 338 94 91 67 36 332 292 321 6 352 308 293 272 156 155 155 152 154 150 146 146 147 153 144 114 126 166 189 217 207 178 178 173 162 145 136 153 164 160 159 157 155 158 160 164 171 172 168 168 172 176 176 175 174 171 168 169 170 169 173 177 173 169 165 164 163 158 157 157 158 158 157 154 149 153 157 156 160 163 163 164 165 159 151 160 169 166 160 173 205
226 257 255 252 253 256 271 280 115 103 104 249 301 323 340 352 325 293 299 298 136 142 146 144 143 141 139 140 149 155 141 138 176 188 183 200 208 181 176 168 156 143 140 160 165 153 155 162 163 164 166 170 173 172 170 171 174 176 177 177 176 171 169 174 176 175 179 181 179 176 173 170 166 162 161 160 155 148 149 146 137 138 144 149 156 160 162 166 168 164 158 167 175 171 181 196 209
220 248 257 263 269 266 273 281 286 102 139 225 274 292 287 261 268 272 277 245 136 142 146 142 140 138 138 143 153 152 143 160 187 195 191 201 208 185 177 166 150 147 149 151 154 160 166 166 164 164 168 172 170 169 171 173 176 178 180 180 178 174 174 180 183 181 181 183 183 180 179 176 171 166 162 161 157 153 155 150 141 139 139 146 153 156 157 162 174 179 177 180 180 183 197 193 168
208 231 250 256 270 274 274 275 259 160 168 199 237 252 250 237 244 256 262 254 140 139 145 147 142 139 142 152 164 161 155 173 189 196 203 211 212 192 176 164 148 144 147 149 161 169 167 161 163 167 170 172 167 168 171 174 178 180 182 184 181 180 182 185 186 184 182 184 186 183 181 178 173 167 163 164 167 174 178 165 159 157 150 156 158 161 165 167 181 191 191 188 186 188 188 184 177
211 222 252 255 265 273 273 277 238 192 194 188 215 251 256 245 226 236 250 242 165 143 151 155 146 143 149 158 170 170 163 183 190 188 200 217 225 202 185 166 148 144 149 156 166 165 159 160 168 173 173 169 165 168 174 176 181 182 184 185 184 185 186 186 186 188 187 188 191 187 182 177 172 168 167 169 173 184 189 175 173 176 167 170 166 166 177 179 179 186 193 190 189 188 174 171 183
282 267 269 262 273 290 291 293 280 260 189 182 219 255 267 269 241 234 236 239 202 154 157 157 147 145 151 161 165 171 178 183 179 151 76 345 335 305 283 151 145 150 157 161 163 161 160 163 170 175 173 169 165 170 177 179 182 185 188 186 185 187 186 186 187 188 191 193 195 190 181 174 170 170 170 170 172 177 178 170 173 178 176 179 173 168 182 189 186 187 194 195 190 182 167 155 164
286 289 294 279 295 288 267 264 262 264 204 181 194 259 268 252 240 244 235 244 241 165 149 147 144 143 145 155 155 175 184 130 85 66 41 302 275 309 336 357 142 151 159 168 166 164 167 166 169 172 173 174 171 173 177 179 182 186 188 185 185 188 186 187 188 188 193 195 192 185 180 176 172 170 169 172 178 172 166 166 171 175 172 172 170 165 170 176 176 170 175 185 178 173 162 142 145
258 262 270 291 323 276 245 233 229 226 219 188 168 255 266 239 233 241 227 231 241 172 142 143 140 137 137 148 156 170 159 100 92 131 191 208 197 185 343 333 182 155 156 165 164 165 171 169 168 170 174 177 175 176 177 177 181 186 186 185 188 190 188 189 190 190 194 194 188 180 176 179 178 172 170 178 184 174 166 166 166 168 166 162 165 164 156 154 157 154 157 162 160 167 156 139 145
259 264 262 237 266 266 245 215 207 212 215 173 150 229 258 250 243 244 230 227 227 161 145 146 140 142 144 153 160 155 125 123 155 178 189 186 184 183 161 178 200 166 155 156 156 162 169 166 167 170 173 177 176 177 178 175 176 180 183 186 190 192 191 191 192 192 193 189 184 179 178 181 181 175 171 176 179 174 169 167 166 167 167 164 164 166 162 155 154 154 156 150 144 152 148 141 150
250 221 287 231 202 257 256 224 201 201 196 143 135 219 264 259 244 245 235 233 220 147 149 152 150 156 155 157 155 143 121 143 164 169 172 175 180 185 166 160 191 179 160 154 154 158 163 166 170 173 173 178 178 177 177 174 172 175 180 186 190 192 192 191 189 189 188 183 179 180 181 181 177 172 167 170 171 171 169 168 169 170 172 172 164 162 165 165 160 154 156 150 142 144 144 143 147
251 180 240 241 221 251 265 240 199 192 183 139 140 186 274 271 251 263 240 219 193 142 154 156 155 160 154 158 150 138 133 147 154 149 165 181 182 183 172 152 177 192 167 152 155 159 163 167 174 177 173 174 176 177 180 179 178 178 179 185 188 189 193 193 186 183 184 180 176 177 178 178 176 171 170 173 167 167 171 169 171 174 176 172 164 161 164 164 158 148 150 153 146 144 144 142 141
274 209 220 239 238 246 268 257 188 180 165 142 148 177 249 266 276 299 277 184 150 139 160 161 160 162 157 160 151 146 147 160 165 154 169 186 185 184 177 144 157 187 168 151 157 162 162 166 172 175 174 173 173 176 181 183 183 180 178 182 185 186 191 192 186 183 185 182 177 174 173 177 183 183 184 178 167 166 174 174 174 173 169 165 164 165 166 164 159 150 147 149 149 146 145 144 140
240 219 208 237 251 249 254 256 176 170 150 149 157 195 244 259 272 296 318 130 127 140 159 164 171 168 165 166 160 158 157 174 180 163 168 182 184 180 164 134 145 176 171 155 156 160 157 161 166 166 170 173 169 170 177 178 178 177 176 180 183 183 184 185 185 188 190 186 181 180 178 178 182 185 191 184 173 169 175 179 178 170 166 168 169 169 169 166 161 157 150 147 151 149 146 146 143
242 241 209 224 260 260 250 217 176 172 151 151 160 195 243 259 268 290 310 126 136 158 164 166 176 172 166 167 165 164 172 190 177 161 168 178 182 176 155 138 146 170 170 156 155 158 154 157 162 161 166 170 165 164 171 174 172 170 172 179 182 180 180 182 185 191 193 187 184 185 185 182 179 179 188 192 183 174 174 179 177 173 174 173 172 172 171 168 163 162 155 148 147 146 147 150 145
255 270 266 279 285 280 278 197 167 163 138 173 184 195 244 276 286 294 314 9 126 204 203 183 173 171 170 168 169 173 181 186 153 156 173 182 180 170 158 151 152 159 160 155 153 154 155 157 161 160 164 172 169 165 170 174 173 169 167 176 179 175 182 187 186 191 192 188 186 188 187 184 183 183 189 196 192 189 189 178 171 174 177 172 173 178 171 163 162 162 157 153 148 143 147 152 148
265 280 292 310 294 282 299 194 168 141 107 192 192 161 278 306 302 300 311 313 257 214 218 208 175 169 168 166 172 180 180 157 135 154 174 181 178 167 163 162 157 153 150 149 148 151 158 160 163 162 164 174 178 177 181 181 178 175 171 178 182 177 185 192 188 189 190 188 188 189 189 186 186 190 190 195 196 199 203 182 170 170 171 168 171 177 171 160 158 159 156 154 152 145 147 153 152
267 287 278 289 288 303 316 222 167 95 99 200 163 116 279 291 294 303 309 290 258 213 204 196 174 171 175 175 177 174 172 164 156 170 175 171 170 166 164 160 154 150 146 144 144 151 164 167 169 169 170 176 180 185 192 189 181 180 178 181 186 182 184 190 187 186 184 186 194 195 192 187 187 192 191 194 198 195 195 187 174 167 165 170 171 169 172 167 161 162 157 154 153 148 149 155 158
298 327 292 276 293 310 309 293 272 357 173 183 138 127 261 292 303 303 289 274 275 252 230 208 178 180 186 187 183 168 170 178 176 182 178 161 159 160 156 152 148 145 141 141 148 162 171 173 174 174 174 177 180 186 194 192 182 180 183 185 189 188 187 187 186 185 181 183 196 197 192 188 188 195 195 195 200 193 186 188 182 169 165 175 176 170 174 174 168 165 160 159 158 151 151 156 162
318 288 275 289 300 294 289 300 315 318 301 128 117 104 301 269 268 287 275 272 289 267 253 263 224 199 195 191 187 177 174 180 182 181 177 165 162 157 150 148 146 143 143 150 162 172 173 173 178 180 178 179 182 186 189 189 182 175 172 171 178 183 182 182 184 186 183 182 195 196 189 188 191 197 199 195 198 195 187 190 188 175 168 174 180 178 178 178 173 169 167 168 167 160 156 159 163
338 259 234 261 286 291 298 306 324 0 326 295 123 122 291 255 226 251 269 279 284 271 255 260 258 239 221 209 200 190 183 182 180 176 174 172 164 152 147 144 142 146 153 161 173 178 171 173 182 183 180 182 186 187 187 188 184 178 169 161 163 167 170 179 182 182 184 186 196 195 186 187 191 195 198 195 195 195 191 193 190 180 173 175 181 183 181 178 174 172 174 176 175 169 164 162 160
298 264 246 243 251 266 279 287 296 5 273 281 121 155 270 295 259 247 250 256 261 276 277 251 248 5 22 18 20 166 191 185 171 173 173 164 158 153 148 141 140 150 160 169 178 177 171 175 184 182 178 184 192 192 190 188 185 183 177 169 166 166 170 179 181 179 183 188 193 190 185 187 190 188 191 194 194 191 193 194 187 180 178 176 180 182 178 176 174 174 178 179 179 176 172 168 164
225 237 250 244 231 241 247 251 262 236 252 300 23 113 244 287 275 268 270 270 271 332 332 299 85 54 43 38 33 43 188 183 160 168 157 120 102 92 84 88 108 141 162 173 178 174 172 178 185 180 174 185 197 196 193 191 188 185 180 174 172 173 174 179 180 177 177 184 187 185 184 186 188 186 187 193 193 190 194 192 182 181 180 176 180 183 179 177 177 179 181 179 179 181 181 177 171
222 221 240 249 240 247 242 219 246 304 329 317 329 7 325 262 273 282 267 270 357 47 31 28 46 49 42 39 39 44 87 149 127 114 96 78 74 80 81 81 98 129 151 174 185 178 176 181 186 182 176 186 198 198 194 192 192 190 184 177 175 178 178 177 180 179 176 180 181 178 179 180 183 184 185 190 191 190 193 190 185 187 183 177 181 185 184 184 183 183 183 181 181 183 187 184 177
215 221 239 264 274 272 254 119 66 7 9 290 276 273 281 277 297 309 276 280 28 44 47 40 34 38 43 44 47 53 58 63 64 62 66 72 84 106 121 126 135 144 153 178 207 200 185 184 190 187 181 187 197 199 194 190 192 192 188 183 180 181 179 172 174 176 175 177 176 175 177 177 179 182 183 186 187 189 193 191 190 192 187 182 183 184 184 187 188 186 186 183 181 182 185 187 182
212 214 231 283 292 328 39 51 50 25 320 259 252 226 193 273 319 7 24 34 54 54 47 39 32 33 38 42 45 54 64 66 68 65 68 82 94 116 133 137 146 159 172 182 194 200 195 195 198 194 187 189 194 197 193 191 193 193 191 191 188 184 179 173 172 171 171 173 174 176 177 176 180 182 179 179 185 190 191 191 191 189 187 185 185 183 182 185 187 187 187 185 183 183 183 187 185
199 164 104 10 327 13 31 6 38 36 263 256 262 272 238 230 326 17 56 47 53 70 57 37 36 35 36 42 36 35 58 70 77 80 80 92 102 117 138 151 160 169 179 182 183 190 193 197 201 200 197 194 195 197 192 193 196 195 195 196 193 188 182 177 176 173 172 175 176 176 176 175 176 180 176 173 179 186 183 183 185 184 185 185 184 184 181 181 182 182 184 186 187 186 182 184 184
124 79 90 102 323 359 38 331 192 219 246 232 227 266 262 177 48 5 52 50 45 66 69 50 45 41 42 45 37 28 39 52 60 73 85 102 122 138 156 169 173 179 185 184 185 188 189 192 196 199 204 201 198 195 190 191 195 194 197 199 196 192 188 184 182 179 178 180 178 176 177 173 169 173 174 169 173 177 175 179 184 183 186 187 184 184 183 181 182 179 179 182 185 185 180 180 184
156 171 147 142 168 76 236 232 215 225 240 227 195 207 255 161 89 343 22 48 51 64 65 58 51 44 42 47 47 41 41 47 44 44 55 59 74 96 124 155 174 190 197 195 195 192 189 194 199 205 212 212 204 192 184 189 194 194 197 203 200 193 191 190 187 185 184 185 183 179 177 172 168 171 172 168 169 172 171 175 183 183 184 185 182 181 182 183 185 183 181 181 181 180 176 175 179
193 182 152 153 170 166 208 211 193 220 251 275 209 100 157 168 223 295 28 54 57 64 62 63 56 43 39 41 44 43 42 47 42 40 51 50 66 81 104 150 187 206 212 212 209 203 197 201 210 218 222 220 209 192 186 190 194 194 197 202 202 195 192 191 191 189 188 186 185 181 174 167 167 173 173 170 169 171 169 168 173 174 174 177 177 176 178 180 185 186 184 184 181 178 177 176 176
241 174 142 172 193 173 210 231 206 180 105 340 301 75 72 131 145 333 42 46 42 51 46 50 51 38 40 42 38 36 36 38 33 35 41 41 64 75 95 169 209 221 224 227 227 223 213 210 220 227 225 220 208 193 192 194 196 197 198 200 202 197 190 189 190 188 185 183 183 178 170 165 168 170 170 169 169 171 170 165 163 163 164 168 173 176 176 176 182 186 184 184 182 181 185 185 183
286 353 180 203 198 176 195 264 260 132 113 267 180 113 64 93 32 349 20 31 26 33 33 36 40 35 39 42 37 31 30 33 31 31 33 32 35 28 14 298 249 248 248 246 242 239 229 220 230 231 219 210 200 192 191 193 196 200 198 196 199 197 192 190 188 184 181 180 180 174 167 166 169 167 166 168 167 166 169 167 164 162 163 166 170 177 177 174 179 183 183 186 185 185 188 190 189
230 286 232 201 191 194 172 229 296 67 125 250 158 128 115 56 341 333 11 24 15 23 30 28 29 33 35 34 38 36 29 28 29 30 32 32 32 22 6 348 296 267 271 270 261 262 259 253 274 271 226 201 194 189 187 191 196 199 196 193 196 197 196 195 190 184 183 182 180 175 168 166 169 166 164 166 163 161 164 166 164 162 163 165 165 168 173 176 181 183 183 186 189 189 189 190 192
191 227 259 84 139 221 274 159 216 140 170 257 109 107 80 44 65 325 358 13 11 23 32 30 26 26 26 26 38 42 33 27 25 25 27 35 33 23 14 10 1 323 301 295 283 278 279 273 284 317 300 215 201 189 185 194 199 198 195 191 194 196 196 196 191 186 186 184 181 177 169 165 170 169 163 162 161 160 162 163 164 164 163 165 165 165 169 174 179 181 179 182 188 190 187 188 192
204 231 277 168 155 180 208 205 192 151 169 231 104 87 42 10 38 327 334 2 22 38 42 37 28 23 20 24 33 37 35 30 23 21 22 28 27 19 13 13 16 17 2 336 313 293 291 294 279 291 300 225 208 194 192 201 202 197 192 188 192 196 194 193 191 189 189 187 183 179 170 166 172 168 160 159 161 161 160 161 163 162 161 161 161 164 170 173 174 178 181 181 183 185 184 185 190
316 269 294 307 313 186 190 209 196 134 156 211 122 91 300 297 354 347 14 24 27 48 53 43 33 27 25 27 29 29 31 30 24 22 24 27 24 16 13 14 14 16 13 5 355 329 303 307 299 280 249 216 210 199 196 200 199 194 191 189 191 193 192 192 195 196 195 192 186 179 172 169 169 165 161 161 163 162 159 158 157 156 158 162 164 166 170 173 174 179 184 183 182 183 185 187 189
73 53 26 19 23 60 99 317 320 37 80 133 122 139 241 296 342 356 40 46 35 45 57 54 40 30 29 35 38 35 32 29 24 23 25 28 26 19 17 19 17 14 12 10 11 6 330 276 292 282 218 208 211 201 195 193 191 192 193 192 192 191 191 194 198 200 201 197 189 180 175 170 166 165 166 164 163 164 162 159 157 157 161 164 166 167 169 171 174 178 182 184 185 185 186 188 189